Regional Weather Roundup
Issued by NWS

Home | Current Version | Previous Version | Text Only | Print | Product List | Glossary Off
Versions: 1 2 3 4 5 6 7 8 9 10 11 12 13 14 15 16 17 18 19 20 21 22 23 24 25 26 27

000
ASUS45 KBOU 231507
RWRCO

WEATHER ROUNDUP FOR COLORADO
NATIONAL WEATHER SERVICE DENVER/BOULDER CO
900 AM MDT SAT JUL 23 2016

NOTE: "FAIR" INDICATES FEW OR NO CLOUDS BELOW 12000 FEET WITH NO
SIGNIFICANT WEATHER AND/OR OBSTRUCTIONS TO VISIBILITY.

COZ001>005-013-030-031-231600-
...NORTHWEST COLORADO...

CITY           SKY/WX    TMP DP  RH WIND       PRES   REMARKS
CRAIG          FAIR      70  48  45 CALM      30.27F
HAYDEN         FAIR      66  45  45 E9        30.30S
MEEKER         FAIR      67  48  50 CALM      30.29S
MOUNT WERNER   NOT AVBL
STEAMBOAT SPGS FAIR      63  48  59 CALM      30.32S
WALDEN         FAIR      66  43  42 S9        30.39S
$$

COZ006>008-011-231600-
...WEST CENTRAL VALLEYS...

CITY           SKY/WX    TMP DP  RH WIND       PRES   REMARKS
GRAND JUNCTION FAIR      74  54  49 SE17      30.18R
MONTROSE       FAIR      70  50  49 CALM      30.28R
EAGLE          SUNNY     63  48  59 CALM      30.36S
RIFLE          FAIR      70  50  49 N5        30.25S
DELTA          FAIR      73  52  48 CALM      30.25R
NUCLA          FAIR      70  46  43 CALM      30.31S
$$

COZ017>023-064>068-231600-
...SOUTHWEST COLORADO...

CITY           SKY/WX    TMP DP  RH WIND       PRES   REMARKS
DURANGO        FAIR      70  46  42 CALM      30.30S
CORTEZ         FAIR      72  50  45 SE3       30.26S
PAGOSA SPRINGS FAIR      70  43  37 CALM      30.38S
TELLURIDE      FAIR      63  46  54 CALM      30.53R
WOLF CREEK PAS FAIR      59  37  44 NE10G17   30.73S
$$

COZ009-010-012-014-032>034-037-058>063-231600-
...CENTRAL COLORADO...

CITY           SKY/WX    TMP DP  RH WIND       PRES   REMARKS
ASPEN          FAIR      64  46  52 CALM      30.39S
BUENA VISTA    FAIR      67  44  43 CALM      30.38F
COPPER MTN     FAIR      59  39  47 NW7       30.72R
BERTHOUD PASS  FAIR      46  34  61 N17G24    30.74R
COTTONWOOD PAS FAIR      68  41  37 E3        30.53S
GUNNISON       FAIR      57  46  67 CALM      30.47R
KREMMLING      FAIR      59  45  58 CALM      30.41S
LEADVILLE      FAIR      62  40  44 NE3       30.53F
MONARCH PASS   FAIR      54  36  50 N12       30.80R
SALIDA         FAIR      66  47  49 N3        30.44S
SUNLIGHT       FAIR      63  41  45 CALM      30.64S
WILKERSON PASS FAIR      61  32  33 N8        30.65S
$$

COZ069>075-231600-
...SAN LUIS VALLEY/SANGRE DE CRISTO MOUNTAINS...

CITY           SKY/WX    TMP DP  RH WIND       PRES   REMARKS
ALAMOSA        FAIR      68  49  50 N7        30.37R
LA VETA PASS   FAIR      63  41  45 S7        30.54S
SAGUACHE       FAIR      68  46  45 NW17      30.39S
$$

COZ035-036-038>040-231600-
...NORTHERN COLORADO FRONT RANGE...

CITY           SKY/WX    TMP DP  RH WIND       PRES   REMARKS
DENVER INTL AP FAIR      83  46  27 SW9       30.12R
DMNS CITY PARK   N/A     79  51  37 SW5       30.12S
AURORA         MOSUNNY   80  47  32 SW9       30.15R
FRONT RANGE AP MOSUNNY   84  46  26 SW6       30.14R
ERIE MUNI ARPT FAIR      82  48  29 CALM      30.09S
BOULDER MUN AP FAIR      79  50  36 CALM      30.10S
CENTENNIAL     FAIR      81  41  24 W8        30.16R
BROOMFIELD     MOSUNNY   82  48  30 SW5       30.15R
LONGMONT       FAIR      81  58  45 CALM      30.10S
$$

COZ041-046-047-076>085-087-088-231600-
...PIKES PEAK/PALMER DIVIDE AND SOUTHERN FOOTHILLS...

CITY           SKY/WX    TMP DP  RH WIND       PRES   REMARKS
COLO. SPRINGS  FAIR      84  43  23 N12       30.20R
A. F. ACADEMY  FAIR      81  43  26 N7        30.22R
SCHRIEVER AFB  NOT AVBL
ELLICOTT       FAIR     N/A N/A N/A N12       30.17R
FALCON         FAIR      80  41  25 NW8       30.26R
FORT CARSON    FAIR      81  47  29 N6        30.16R
LIMON          FAIR      86  48  26 NW9       30.11S
MONUMENT HILL  FAIR      73  50  43 W6        30.28R
TRINIDAD       NOT AVBL
$$

COZ042>045-048>051-090-091-231600-
...NORTHEAST COLORADO...

CITY           SKY/WX    TMP DP  RH WIND       PRES   REMARKS
GREELEY ARPT   FAIR      77  64  65 SW3       30.07F
AKRON          FAIR      75  62  64 W10       30.06R
BURLINGTON     FAIR      79  60  52 CALM      30.00S
WRAY           NOT AVBL
STERLING       FAIR      77  66  69 W8        30.01S
HOLYOKE        FAIR      79  66  65 W7        29.99F
FORT MORGAN    FAIR      78  61  56 SW6       30.06S
$$

COZ086-089-092>099-231600-
...SOUTHEAST COLORADO...

CITY           SKY/WX    TMP DP  RH WIND       PRES   REMARKS
PUEBLO         FAIR      86  49  27 NW8       30.07S
LA JUNTA       FAIR      86  53  32 NW7       30.02R
LAMAR          FAIR      83  57  41 W6        29.96R
SPRINGFIELD      N/A     89  50  26 SW6       30.03S
$$




USA.gov is the U.S. government's official web portal to all federal, state and local government web resources and services.